Location: Hartman Creek State Park
(44.3257°N, 89.2134°W)
Time: 15:51:17
(UTC-06:00)

Cosmos 2263 Rocket - Visible Passes

Search period start: 03 December 2016 00:00
Search period end: 13 December 2016 00:00
Orbit: 823 x 850 km, 71.0° (Epoch: 03 December)

Date Brightness Start Highest point End Pass type
(mag) Time Alt. Az. Time Alt. Az. Time Alt. Az.
03 Dec 4.6 18:20:26 10° WNW 18:23:32 15° NW 18:26:40 10° N visible
04 Dec 4.6 18:03:25 10° W 18:06:44 16° NW 18:10:07 10° N visible
05 Dec 4.5 17:46:24 10° W 17:49:58 17° NW 17:53:32 10° N visible
06 Dec 4.4 17:29:26 10° W 17:33:11 18° NW 17:36:57 10° N visible
07 Dec 4.4 17:12:27 10° W 17:16:24 19° NW 17:20:22 10° N visible
08 Dec 4.3 16:55:31 10° W 16:59:37 20° NW 17:03:45 10° N visible
